EW4427 Weather Reports


Display with metric or nautical units.
time (UTC)temp
F
wind
direction
speed
MPH
gust
MPH
rain 1hr
in
rain 24hr
in
rain mn
in
humidity
%
barometer
mb
20260510214553 62 88 1.0 4.0 0.00 0.00 0.00 35 1018.6
20260510214045 61 0 0.0 3.0 0.00 0.00 0.00 39 1018.6
20260510213546 60 0 1.0 3.0 0.00 0.00 0.00 36 1018.6
20260510213053 60 297 1.0 6.0 0.00 0.00 0.00 36 1018.5
20260510212548 61 0 0.0 6.0 0.00 0.00 0.00 37 1018.4
20260510212045 61 22 1.0 6.0 0.00 0.00 0.00 36 1018.4
20260510211553 61 0 0.0 6.0 0.00 0.00 0.00 38 1018.5
20260510211046 60 217 1.0 5.0 0.00 0.00 0.00 36 1018.4
20260510210546 60 0 0.0 2.0 0.00 0.00 0.00 35 1018.5
20260510210058 60 84 0.0 2.0 0.00 0.00 0.00 37 1018.5
20260510205546 61 276 0.0 4.0 0.00 0.00 0.00 36 1018.5
20260510205047 61 0 0.0 7.0 0.00 0.00 0.00 37 1018.4
20260510204555 61 0 0.0 7.0 0.00 0.00 0.00 36 1018.4
20260510204046 61 242 1.0 5.0 0.00 0.00 0.00 34 1018.4
20260510203547 61 0 0.0 3.0 0.00 0.00 0.00 38 1018.5
20260510203051 60 0 0.0 3.0 0.00 0.00 0.00 36 1018.5
20260510202546 61 35 0.0 4.0 0.00 0.00 0.00 36 1018.5
20260510202046 62 166 0.0 7.0 0.00 0.00 0.00 35 1018.5
20260510201555 63 0 0.0 7.0 0.00 0.00 0.00 34 1018.5
20260510201046 62 0 1.0 8.0 0.00 0.00 0.00 34 1018.5
20260510200546 62 41 2.0 11.0 0.00 0.00 0.00 33 1018.6
20260510200058 62 27 2.0 11.0 0.00 0.00 0.00 33 1018.5
20260510195545 62 31 2.0 7.0 0.00 0.00 0.00 31 1018.4
20260510195045 62 0 1.0 4.0 0.00 0.00 0.00 35 1018.5
20260510194556 62 0 1.0 11.0 0.00 0.00 0.00 34 1018.5
20260510194045 63 0 1.0 11.0 0.00 0.00 0.00 32 1018.5
20260510193547 62 5 0.0 6.0 0.00 0.00 0.00 34 1018.5
20260510193055 62 55 0.0 5.0 0.00 0.00 0.00 36 1018.4
20260510192547 61 11 0.0 8.0 0.00 0.00 0.00 36 1018.5
20260510192046 62 222 1.0 8.0 0.00 0.00 0.00 36 1018.4
20260510191556 62 27 1.0 8.0 0.00 0.00 0.00 34 1018.6
20260510191047 61 33 1.0 7.0 0.00 0.00 0.00 31 1018.5
20260510190545 62 0 1.0 7.0 0.00 0.00 0.00 32 1018.6
20260510190056 62 74 1.0 6.0 0.00 0.00 0.00 32 1018.6
20260510185546 63 318 1.0 8.0 0.00 0.00 0.00 32 1018.4
20260510185046 63 62 1.0 8.0 0.00 0.00 0.00 35 1018.5
20260510184556 63 0 1.0 8.0 0.00 0.00 0.00 31 1018.4
20260510184045 61 0 1.0 4.0 0.00 0.00 0.00 33 1018.5
20260510183547 61 0 1.0 4.0 0.00 0.00 0.00 39 1018.5
20260510183053 61 0 0.0 5.0 0.00 0.00 0.00 33 1018.6
20260510182549 61 186 1.0 5.0 0.00 0.00 0.00 36 1018.5
20260510182045 60 0 0.0 5.0 0.00 0.00 0.00 37 1018.6
20260510181551 62 195 1.0 8.0 0.00 0.00 0.00 33 1018.5
20260510181050 63 0 2.0 8.0 0.00 0.00 0.00 46 1018.6
20260510180549 61 199 0.0 8.0 0.00 0.00 0.00 38 1018.6
20260510180051 60 208 0.0 4.0 0.00 0.00 0.00 39 1018.7
20260510175546 61 62 1.0 3.0 0.00 0.00 0.00 39 1018.7
20260510175046 60 35 0.0 3.0 0.00 0.00 0.00 43 1018.8
20260510174555 58 202 0.0 5.0 0.00 0.00 0.00 40 1018.8
20260510174045 58 157 0.0 5.0 0.00 0.00 0.00 40 1018.7
20260510173546 58 46 0.0 11.0 0.00 0.00 0.00 37 1018.7
20260510173052 59 58 2.0 11.0 0.00 0.00 0.00 40 1018.6
20260510172544 59 0 1.0 7.0 0.00 0.00 0.00 41 1018.6
20260510172045 59 63 0.0 7.0 0.00 0.00 0.00 40 1018.6
20260510171606 59 0 0.0 7.0 0.00 0.00 0.00 40 1018.6
20260510171045 59 28 0.0 5.0 0.00 0.00 0.00 37 1018.6
20260510170547 60 38 1.0 5.0 0.00 0.00 0.00 35 1018.6
20260510170051 61 0 0.0 8.0 0.00 0.00 0.00 36 1018.6
20260510165548 61 144 1.0 8.0 0.00 0.00 0.00 41 1018.5
20260510165046 61 51 2.0 8.0 0.00 0.00 0.00 39 1018.6
20260510164556 60 0 1.0 5.0 0.00 0.00 0.00 37 1018.6
20260510164047 60 0 1.0 5.0 0.00 0.00 0.00 36 1018.5
20260510163548 59 346 0.0 5.0 0.00 0.00 0.00 41 1018.6
20260510163109 57 0 0.0 5.0 0.00 0.00 0.00 43 1018.6
20260510162546 57 0 1.0 5.0 0.00 0.00 0.00 42 1018.5
20260510162043 57 184 1.0 7.0 0.00 0.00 0.00 40 1018.5
20260510161554 58 0 0.0 7.0 0.00 0.00 0.00 36 1018.4
20260510161045 58 203 3.0 7.0 0.00 0.00 0.00 42 1018.4
20260510160543 58 198 3.0 8.0 0.00 0.00 0.00 40 1018.6
20260510160057 58 0 1.0 8.0 0.00 0.00 0.00 42 1018.5
20260510155547 58 134 1.0 6.0 0.00 0.00 0.00 41 1018.5
20260510155045 57 0 2.0 6.0 0.00 0.00 0.00 47 1018.5
20260510154601 56 201 2.0 6.0 0.00 0.00 0.00 48 1018.5
20260510154047 56 198 2.0 6.0 0.00 0.00 0.00 46 1018.4
20260510153545 56 212 3.0 6.0 0.00 0.00 0.00 45 1018.4
20260510153101 57 201 0.0 3.0 0.00 0.00 0.00 50 1018.5
20260510152547 57 0 0.0 6.0 0.00 0.00 0.00 47 1018.5
20260510152046 56 0 0.0 6.0 0.00 0.00 0.00 49 1018.3
20260510151602 54 200 1.0 6.0 0.00 0.00 0.00 48 1018.4
20260510151048 54 179 3.0 6.0 0.00 0.00 0.00 49 1018.3
20260510150548 53 219 1.0 7.0 0.00 0.00 0.00 47 1018.5
20260510150058 53 215 3.0 7.0 0.00 0.00 0.00 49 1018.5
20260510145545 53 177 1.0 7.0 0.00 0.00 0.00 48 1018.5
20260510145046 53 188 3.0 7.0 0.00 0.00 0.00 48 1018.5
20260510144610 53 183 3.0 5.0 0.00 0.00 0.00 47 1018.4
20260510144043 53 203 0.0 5.0 0.00 0.00 0.00 50 1018.5
20260510143545 52 192 0.0 3.0 0.00 0.00 0.00 46 1018.5
20260510143108 52 0 0.0 7.0 0.00 0.00 0.00 44 1018.5
20260510142547 52 194 1.0 7.0 0.00 0.00 0.00 51 1018.4
20260510142047 52 188 1.0 5.0 0.00 0.00 0.00 50 1018.4
20260510141550 51 181 1.0 3.0 0.00 0.00 0.00 48 1018.4
20260510141049 51 0 1.0 3.0 0.00 0.00 0.00 51 1018.4
20260510140548 51 186 0.0 4.0 0.00 0.00 0.00 52 1018.5
20260510140053 50 0 1.0 4.0 0.00 0.00 0.00 53 1018.3
20260510135547 50 186 2.0 4.0 0.00 0.00 0.00 55 1018.2
20260510135047 50 184 1.0 3.0 0.00 0.00 0.00 60 1018.2
20260510134604 50 0 0.0 2.0 0.00 0.00 0.00 58 1018.2
20260510134048 50 190 0.0 2.0 0.00 0.00 0.00 60 1018.2
20260510133549 50 0 0.0 2.0 0.00 0.00 0.00 55 1018.1
20260510133053 49 0 0.0 3.0 0.00 0.00 0.00 58 1018.2
20260510132547 49 0 0.0 3.0 0.00 0.00 0.00 61 1018.1
20260510132048 49 201 0.0 2.0 0.00 0.00 0.00 63 1018.1
20260510131551 48 0 0.0 2.0 0.00 0.00 0.00 67 1018.1
20260510131048 46 17 0.0 2.0 0.00 0.00 0.00 72 1018.1
20260510130548 44 0 0.0 1.0 0.00 0.00 0.00 80 1017.9
20260510130053 43 0 0.0 1.0 0.00 0.00 0.00 84 1017.8
20260510125547 42 0 0.0 1.0 0.00 0.00 0.00 85 1017.8
20260510125047 41 0 0.0 1.0 0.00 0.00 0.00 89 1017.8
20260510124559 41 0 0.0 1.0 0.00 0.00 0.00 90 1017.7
20260510124047 40 0 0.0 0.0 0.00 0.00 0.00 90 1017.6
20260510123545 39 0 0.0 1.0 0.00 0.00 0.00 90 1017.5
20260510123051 39 0 0.0 1.0 0.00 0.00 0.00 90 1017.5
20260510122546 38 0 0.0 0.0 0.00 0.00 0.00 90 1017.5
20260510122045 38 0 0.0 0.0 0.00 0.00 0.00 90 1017.5
20260510121551 37 0 0.0 0.0 0.00 0.00 0.00 89 1017.4
20260510121045 37 0 0.0 0.0 0.00 0.00 0.00 89 1017.3
20260510120548 36 0 0.0 0.0 0.00 0.00 0.00 88 1017.3
20260510120051 36 0 0.0 0.0 0.00 0.00 0.00 88 1017.3
20260510115545 36 0 0.0 0.0 0.00 0.00 0.00 88 1017.3
20260510115045 35 0 0.0 0.0 0.00 0.00 0.00 87 1017.2
20260510114547 35 0 0.0 0.0 0.00 0.00 0.00 87 1017.2
20260510114045 35 0 0.0 0.0 0.00 0.00 0.00 87 1017.0
20260510113547 35 0 0.0 0.0 0.00 0.00 0.00 86 1017.0
20260510113047 35 0 0.0 0.0 0.00 0.00 0.00 86 1016.9
20260510112546 35 0 0.0 0.0 0.00 0.00 0.00 86 1016.9
20260510112050 35 0 0.0 0.0 0.00 0.00 0.00 86 1016.9
20260510111555 35 0 0.0 0.0 0.00 0.00 0.00 86 1016.8
20260510111047 35 0 0.0 0.0 0.00 0.00 0.00 86 1016.6
20260510110550 35 0 0.0 0.0 0.00 0.00 0.00 86 1016.7
20260510110052 35 0 0.0 0.0 0.00 0.00 0.00 86 1016.6
20260510105544 35 0 0.0 0.0 0.00 0.00 0.00 87 1016.6
20260510105045 36 0 0.0 0.0 0.00 0.00 0.00 87 1016.5
20260510104608 36 0 0.0 0.0 0.00 0.00 0.00 86 1016.5
20260510104049 36 0 0.0 0.0 0.00 0.00 0.00 86 1016.5
20260510103545 36 0 0.0 0.0 0.00 0.00 0.00 86 1016.5
20260510103049 36 0 0.0 0.0 0.00 0.00 0.00 87 1016.4
20260510102545 36 0 0.0 1.0 0.00 0.00 0.00 87 1016.3
20260510102044 36 0 0.0 1.0 0.00 0.00 0.00 87 1016.2
20260510101549 36 0 0.0 0.0 0.00 0.00 0.00 87 1016.2
20260510101047 36 0 0.0 0.0 0.00 0.00 0.00 87 1016.1
20260510100545 36 0 0.0 0.0 0.00 0.00 0.00 87 1016.0
20260510100053 35 0 0.0 0.0 0.00 0.00 0.00 87 1016.0
20260510095549 35 0 0.0 0.0 0.00 0.00 0.00 87 1015.9
20260510095045 35 0 0.0 0.0 0.00 0.00 0.00 87 1015.8
20260510094550 35 0 0.0 0.0 0.00 0.00 0.00 87 1015.6
20260510094046 36 0 0.0 0.0 0.00 0.00 0.00 87 1015.6
20260510093547 36 0 0.0 0.0 0.00 0.00 0.00 87 1015.7
20260510093051 36 0 0.0 0.0 0.00 0.00 0.00 87 1015.6
20260510092545 36 0 0.0 0.0 0.00 0.00 0.00 87 1015.5
20260510092048 36 0 0.0 0.0 0.00 0.00 0.00 87 1015.6
20260510091550 36 0 0.0 0.0 0.00 0.00 0.00 87 1015.5
20260510091045 36 0 0.0 0.0 0.00 0.00 0.00 87 1015.4
20260510090544 36 0 0.0 0.0 0.00 0.00 0.00 87 1015.3
20260510090048 36 0 0.0 0.0 0.00 0.00 0.00 87 1015.4
20260510085546 37 0 0.0 0.0 0.00 0.00 0.00 86 1015.3
20260510085045 37 0 0.0 0.0 0.00 0.00 0.00 86 1015.1
20260510084552 37 0 0.0 0.0 0.00 0.00 0.00 85 1015.0
20260510084045 37 0 0.0 0.0 0.00 0.00 0.00 85 1015.0
20260510083545 37 0 0.0 0.0 0.00 0.00 0.00 85 1015.0
20260510083053 37 0 0.0 0.0 0.00 0.00 0.00 84 1015.0
20260510082547 37 0 0.0 0.0 0.00 0.00 0.00 84 1014.9
20260510082044 37 0 0.0 0.0 0.00 0.00 0.00 84 1015.0
20260510081608 37 0 0.0 0.0 0.00 0.00 0.00 83 1014.8
20260510081047 38 0 0.0 0.0 0.00 0.00 0.00 83 1014.6
20260510080544 38 0 0.0 0.0 0.00 0.00 0.00 83 1014.6
20260510080049 38 0 0.0 0.0 0.00 0.00 0.00 82 1014.5
20260510075544 38 0 0.0 0.0 0.00 0.00 0.00 82 1014.4
20260510075046 38 0 0.0 0.0 0.00 0.00 0.00 81 1014.4
20260510074552 39 0 0.0 0.0 0.00 0.00 0.00 81 1014.4
20260510074044 39 0 0.0 0.0 0.00 0.00 0.00 81 1014.3
20260510073545 39 0 0.0 0.0 0.00 0.00 0.00 80 1014.3
20260510073050 39 0 0.0 0.0 0.00 0.00 0.00 80 1014.2
20260510072545 39 0 0.0 0.0 0.00 0.00 0.00 79 1014.1
20260510072048 39 0 0.0 0.0 0.00 0.00 0.00 78 1014.0
20260510071548 39 0 0.0 0.0 0.00 0.00 0.00 77 1014.1
20260510071044 40 0 0.0 0.0 0.00 0.00 0.00 76 1014.0
20260510070544 40 0 0.0 0.0 0.00 0.00 0.00 75 1014.0
20260510070055 40 0 0.0 0.0 0.00 0.00 0.00 74 1014.0
20260510065545 40 0 0.0 0.0 0.00 0.00 0.00 74 1013.9
20260510065045 41 0 0.0 0.0 0.00 0.00 0.00 74 1013.8
20260510064546 41 0 0.0 0.0 0.00 0.00 0.00 74 1013.8
20260510064046 41 0 0.0 0.0 0.00 0.00 0.00 73 1013.7
20260510063544 41 0 0.0 0.0 0.00 0.00 0.00 73 1013.8
20260510063051 41 0 0.0 0.0 0.00 0.00 0.00 72 1013.8
20260510062547 42 0 0.0 0.0 0.00 0.00 0.00 71 1013.7
20260510062047 42 0 0.0 0.0 0.00 0.00 0.00 71 1013.7
20260510061546 42 0 0.0 0.0 0.00 0.00 0.00 71 1013.6
20260510061048 42 0 0.0 0.0 0.00 0.00 0.00 70 1013.5
20260510060547 43 0 0.0 0.0 0.00 0.00 0.00 70 1013.4
20260510060057 43 0 0.0 0.0 0.00 0.00 0.00 69 1013.2
20260510055546 44 0 0.0 2.0 0.00 0.00 0.00 67 1013.3
20260510055045 44 0 0.0 2.0 0.00 0.00 0.00 67 1013.2
20260510054549 44 0 0.0 2.0 0.00 0.00 0.00 66 1013.2
20260510054045 45 0 0.0 3.0 0.00 0.00 0.00 66 1013.0
20260510053548 45 0 0.0 4.0 0.00 0.00 0.00 65 1013.0
20260510053055 45 0 0.0 5.0 0.00 0.00 0.00 65 1012.9
20260510052544 45 26 1.0 5.0 0.00 0.00 0.00 64 1012.9
20260510052047 45 27 1.0 7.0 0.00 0.00 0.00 64 1013.0
20260510051638 46 9 2.0 7.0 0.00 0.00 0.00 63 1012.8
20260510051045 46 0 1.0 5.0 0.00 0.00 0.00 62 1012.9
20260510050547 46 336 1.0 8.0 0.00 0.00 0.00 61 1012.8
20260510050052 47 340 1.0 8.0 0.00 0.00 0.00 60 1012.8
20260510045547 47 343 1.0 7.0 0.00 0.00 0.00 59 1012.7
20260510045047 48 80 1.0 8.0 0.00 0.00 0.00 57 1012.6
20260510044549 48 15 2.0 8.0 0.00 0.00 0.00 55 1012.4
20260510044042 49 346 2.0 9.0 0.00 0.00 0.00 54 1012.4
20260510043543 49 11 2.0 9.0 0.00 0.00 0.00 51 1012.3
20260510043125 49 32 2.0 9.0 0.00 0.00 0.00 51 1012.1
20260510042542 49 26 3.0 9.0 0.00 0.00 0.00 51 1011.9
20260510042045 48 0 0.0 4.0 0.00 0.00 0.00 53 1011.7
20260510041554 48 0 0.0 0.0 0.00 0.00 0.00 53 1011.4
20260510041043 49 0 0.0 0.0 0.00 0.00 0.00 52 1011.3
20260510040545 49 0 0.0 0.0 0.00 0.00 0.00 53 1011.2
20260510040050 49 0 0.0 0.0 0.00 0.00 0.00 52 1011.0
20260510035544 49 0 0.0 0.0 0.00 0.00 0.00 52 1011.0
20260510035046 49 0 0.0 0.0 0.00 0.00 0.00 53 1011.0
20260510034550 50 0 0.0 0.0 0.00 0.00 0.00 54 1010.9
20260510034045 50 0 0.0 0.0 0.00 0.00 0.00 54 1010.9
20260510033545 50 0 0.0 0.0 0.00 0.00 0.00 54 1010.9
20260510033056 50 0 0.0 0.0 0.00 0.00 0.00 55 1010.7
20260510032543 50 0 0.0 0.0 0.00 0.00 0.00 55 1010.7
20260510032045 50 0 0.0 0.0 0.00 0.00 0.00 54 1010.7
20260510031621 51 0 0.0 0.0 0.00 0.00 0.00 55 1010.6
20260510031043 51 0 0.0 0.0 0.00 0.00 0.00 54 1010.6
20260510030543 51 0 0.0 0.0 0.00 0.00 0.00 54 1010.6
20260510030053 51 0 0.0 1.0 0.00 0.00 0.00 54 1010.6
20260510025542 51 0 0.0 1.0 0.00 0.00 0.00 53 1010.4
20260510025042 52 0 0.0 0.0 0.00 0.00 0.00 53 1010.3
20260510024552 52 0 0.0 0.0 0.00 0.00 0.00 53 1010.3
20260510024042 52 0 0.0 0.0 0.00 0.00 0.00 52 1010.2
20260510023543 53 0 0.0 0.0 0.00 0.00 0.00 52 1010.1
20260510023057 53 0 0.0 1.0 0.00 0.00 0.00 52 1009.9
20260510022543 53 0 0.0 1.0 0.00 0.00 0.00 52 1009.8
20260510022041 53 0 0.0 0.0 0.00 0.00 0.00 53 1009.7
20260510021556 53 0 0.0 0.0 0.00 0.00 0.00 53 1009.5
20260510021041 53 0 0.0 0.0 0.00 0.00 0.00 52 1009.5
20260510020546 53 0 0.0 0.0 0.00 0.00 0.00 52 1009.4
20260510020056 54 0 0.0 0.0 0.00 0.00 0.00 51 1009.2
20260510015543 54 0 0.0 0.0 0.00 0.00 0.00 50 1009.1
20260510015043 54 0 0.0 0.0 0.00 0.00 0.00 50 1008.9
20260510014557 55 0 0.0 0.0 0.00 0.00 0.00 49 1008.8
20260510014043 55 0 0.0 0.0 0.00 0.00 0.00 49 1008.6
20260510013547 55 0 0.0 0.0 0.00 0.00 0.00 48 1008.5
20260510013055 55 0 0.0 0.0 0.00 0.00 0.00 48 1008.3
20260510012546 56 0 0.0 0.0 0.00 0.00 0.00 46 1008.2
20260510012043 57 0 0.0 0.0 0.00 0.00 0.00 46 1008.1
20260510011608 57 0 0.0 2.0 0.00 0.00 0.00 45 1008.2
20260510011046 58 0 0.0 2.0 0.00 0.00 0.00 44 1008.0
20260510010545 58 0 0.0 4.0 0.00 0.00 0.00 43 1007.8
20260510010104 58 0 0.0 5.0 0.00 0.00 0.00 43 1007.8
20260510005547 59 0 1.0 5.0 0.00 0.00 0.00 42 1007.7
20260510005046 59 0 0.0 4.0 0.00 0.00 0.00 42 1007.6
20260510004553 59 0 0.0 6.0 0.00 0.00 0.00 42 1007.5
20260510004049 60 10 1.0 6.0 0.00 0.00 0.00 41 1007.5
20260510003547 60 360 1.0 6.0 0.00 0.00 0.00 41 1007.3
20260510003054 60 0 1.0 7.0 0.00 0.00 0.00 42 1007.3
20260510002547 60 355 1.0 7.0 0.00 0.00 0.00 42 1007.2
20260510002047 61 0 1.0 11.0 0.00 0.00 0.00 42 1007.1
20260510001554 61 31 1.0 11.0 0.00 0.00 0.00 42 1007.0
20260510001048 61 43 0.0 10.0 0.00 0.00 0.00 42 1006.8
20260510000546 61 0 0.0 10.0 0.00 0.00 0.00 43 1006.8
20260510000053 61 0 1.0 10.0 0.00 0.00 0.00 42 1006.7
20260509235546 61 24 1.0 8.0 0.00 0.00 0.00 43 1006.7
20260509235045 62 15 1.0 11.0 0.00 0.00 0.00 42 1006.5
20260509234550 62 20 1.0 11.0 0.00 0.00 0.00 42 1006.5
20260509234046 62 0 2.0 11.0 0.00 0.00 0.00 40 1006.5
20260509233546 62 36 2.0 7.0 0.00 0.00 0.00 42 1006.3
20260509233053 62 44 1.0 11.0 0.00 0.00 0.00 42 1006.3
20260509232545 62 13 1.0 11.0 0.00 0.00 0.00 42 1006.3
20260509232047 62 5 1.0 12.0 0.00 0.00 0.00 41 1006.2
20260509231602 63 84 1.0 12.0 0.00 0.00 0.00 42 1006.3
20260509231045 63 341 1.0 8.0 0.00 0.00 0.00 42 1006.1
20260509230546 63 301 2.0 10.0 0.00 0.00 0.00 41 1006.0
20260509230050 63 360 3.0 10.0 0.00 0.00 0.00 40 1006.0
20260509225546 63 51 1.0 8.0 0.00 0.00 0.00 40 1005.8
20260509225046 63 42 1.0 14.0 0.00 0.00 0.00 40 1005.9
20260509224548 64 40 1.0 14.0 0.00 0.00 0.00 39 1005.7
20260509224046 65 350 3.0 10.0 0.00 0.00 0.00 38 1005.6
20260509223547 65 17 2.0 7.0 0.00 0.00 0.00 39 1005.6
20260509223055 65 42 1.0 12.0 0.00 0.00 0.00 40 1005.5
20260509222542 64 56 1.0 12.0 0.00 0.00 0.00 38 1005.4
20260509222042 64 19 1.0 9.0 0.00 0.00 0.00 39 1005.4
20260509221558 65 0 1.0 12.0 0.00 0.00 0.00 40 1005.3
20260509221042 65 27 2.0 12.0 0.00 0.00 0.00 38 1005.2
20260509220541 65 112 4.0 11.0 0.00 0.00 0.00 38 1005.1
20260509220051 66 44 2.0 10.0 0.00 0.00 0.00 39 1005.1
20260509215542 66 302 2.0 9.0 0.00 0.00 0.00 40 1005.1
20260509215045 66 11 2.0 9.0 0.00 0.00 0.00 39 1004.9